[[{"header":{"parameterUnit":"m.s-1","parameterCategory":1,"la1":30.2991,"la2":30.254,"lo1":-89.0895,"lo2":-89.0444,"dy":0.0017,"dx":0.0017,"nx":28,"ny":28,"refTime":"2024-03-25T03:00:00:Z","depth":0,"parameterNumber":2,"parameterNumberName":"U-component_of_WINDS"},"data":[0,0,0,0,0,0,0,0,0,0,0,0,0,0,0,0,0,0,0,0,0,0,0,0,0,0,0,0,0,0,0,0,0,0,0,0,0,0,0,0,0,0,0,0,0,0,0,0,0,0,0,0,0,0,0,0,0,0,2.4808,2.4807,0,2.4784,2.4784,2.4783,2.4766,2.4766,2.4765,2.4765,2.474,2.474,2.4739,0,0,0,0,0,0,0,0,0,0,0,0,0,2.484,2.4839,2.4808,2.4807,2.4807,2.4784,2.4784,2.4783,2.4766,2.4766,2.4765,2.4765,2.474,2.474,2.4739,0,0,0,0,0,0,0,0,0,0,0,0,0,2.4822,2.4839,2.4808,2.4796,2.4794,2.4784,2.4784,2.4783,2.4766,2.4766,2.4765,2.4765,2.474,2.474,2.4739,2.4739,0,0,2.4736,2.4736,0,0,0,0,0,0,0,0,2.4823,2.4821,2.4798,2.4796,2.4795,2.4778,2.4786,2.4768,2.4766,2.4777,2.4765,2.4765,2.4753,2.4751,2.4747,2.4737,2.4736,2.4736,2.4736,2.4736,2.4735,0,0,0,0,0,0,0,2.4824,2.4822,2.4798,2.4797,2.4796,2.4792,2.4789,2.4782,2.4766,2.4776,2.4774,2.4772,2.4752,2.4748,2.4746,2.4736,2.4736,2.4736,2.4735,2.4735,2.473,2.473,0,0,0,0,0,0,2.4827,2.4823,2.4799,2.4798,2.4809,2.4792,2.4788,2.4783,2.4766,2.4763,2.4772,2.4771,2.4749,2.4747,2.4745,2.4747,2.4736,2.4735,2.4734,2.4729,2.473,2.473,0,0,0,0,0,0,2.4828,2.4825,2.48,2.481,2.4806,2.4791,2.4786,2.4783,2.4779,2.4763,2.4761,2.4771,2.4749,2.4746,2.4741,2.4745,2.4734,2.4734,2.4729,2.473,2.473,2.4748,0,0,0,0,0,0,2.4829,2.4826,2.4825,2.481,2.4806,2.4796,2.4786,2.4783,2.4778,2.4776,2.4761,2.4759,2.4748,2.4743,2.4741,2.4744,2.4733,2.4729,2.4729,2.473,2.4747,2.4749,2.475,0,0,0,0,0,2.483,2.4829,2.4825,2.4822,2.4804,2.4796,2.4794,2.4782,2.4778,2.4778,2.4768,2.4759,2.4745,2.4742,2.474,2.4743,2.4728,2.4729,2.473,2.4746,2.4748,2.475,0,0,0,0,0,0,2.4843,2.4827,2.4822,2.4816,2.4808,2.4793,2.4792,2.4785,2.4777,2.4776,2.4762,2.4759,2.4756,2.4749,2.4746,2.4744,2.4736,2.4736,2.4749,2.4751,2.4753,2.4755,2.4732,0,0,0,0,0,2.4846,2.484,2.4826,2.4823,2.4819,2.4807,2.4803,2.4795,2.4786,2.4782,2.4772,2.4764,2.4758,2.4754,2.4747,2.4746,2.4744,2.4747,2.4749,2.4751,2.4751,2.4754,2.4756,2.4733,2.4733,2.4733,0,0,2.485,2.4841,2.4838,2.4826,2.4818,2.4814,2.4804,2.4798,2.4796,2.4781,2.4777,2.477,2.4759,2.4757,2.4756,2.4751,2.4758,2.4752,2.4753,2.4753,2.4755,2.4757,2.4759,2.4733,2.4733,2.4733,0,0,2.4857,2.4848,2.4846,2.484,2.483,2.4822,2.4822,2.4809,2.4805,2.48,2.479,2.4787,2.4776,2.477,2.4766,2.4776,2.4768,2.4774,2.4784,2.4786,2.4788,2.4789,2.4795,2.4797,2.4774,2.4774,2.4774,0,2.4863,2.4856,2.4845,2.4843,2.4839,2.4827,2.4826,2.482,2.4808,2.4806,2.4802,2.4791,2.4783,2.4781,2.4784,2.478,2.4781,2.4775,2.4788,2.479,2.4791,2.4797,2.4799,2.4775,2.4775,2.4775,2.4775,0,2.4867,2.4862,2.4862,2.4853,2.4849,2.4846,2.4837,2.4834,2.4828,2.4821,2.4819,2.481,2.4803,2.4802,2.4794,2.48,2.4798,2.4791,2.4782,2.4795,2.48,2.4801,2.4777,2.4776,2.4776,2.4776,0,0,2.4878,2.4866,2.4866,2.4864,2.4854,2.4851,2.4849,2.4844,2.4843,2.4836,2.4836,2.483,2.4825,2.482,2.4812,2.4814,2.4826,2.4808,2.4807,2.4813,2.4835,2.4841,2.4844,2.4821,2.4821,2.4822,2.4837,0,2.4884,2.4881,2.4873,2.4873,2.4871,2.4862,2.4861,2.4856,2.4851,2.4849,2.4843,2.4839,2.4831,2.4829,2.4831,2.4824,2.4831,2.4823,2.4822,2.4822,2.4826,2.4846,2.4851,2.4866,2.4838,2.4839,2.4839,0,2.4889,2.4886,2.4886,2.4881,2.4879,2.4879,2.4875,2.4873,2.4868,2.4864,2.4861,2.4854,2.4854,2.4847,2.4848,2.4843,2.4843,2.484,2.484,2.484,2.4832,2.4848,2.487,2.4873,2.4841,2.4841,2.4841,0,2.4901,2.4896,2.4896,2.4894,2.4886,2.4887,2.4884,2.4879,2.4877,2.4875,2.4874,2.4871,2.4869,2.4868,2.4861,2.4855,2.4864,2.4855,2.4863,2.4863,2.4865,2.4865,2.4888,2.4862,2.4862,2.4862,2.4862,0,2.4909,2.491,2.4902,2.4902,2.4904,2.4896,2.4899,2.4895,2.4891,2.4892,2.4883,2.4884,2.4875,2.4875,2.4869,2.4873,2.4872,2.487,2.4869,2.4872,2.4872,2.4871,2.4871,2.4863,2.4863,2.4863,2.4863,0,2.4921,2.4915,2.4916,2.491,2.4909,2.4911,2.4906,2.4908,2.4903,2.4904,2.4904,2.4897,2.4898,2.4891,2.4889,2.4886,2.4893,2.4889,2.4895,2.4894,2.4903,2.4903,2.4928,2.4932,2.4902,2.4903,2.4903,0,2.4926,2.4927,2.4923,2.4924,2.4922,2.4922,2.4922,2.4915,2.4915,2.4912,2.4914,2.4915,2.4914,2.4916,2.4911,2.4911,2.4908,2.4917,2.4908,2.4912,2.4911,2.4912,2.4913,2.4919,2.4919,2.492,2.492,0,2.4938,2.4936,2.4936,2.4937,2.4937,2.4936,2.4935,2.4936,2.4929,2.493,2.4931,2.4932,2.4932,2.4933,2.4933,2.4931,2.4925,2.4923,2.4925,2.4928,2.4933,2.4933,2.4902,2.4922,2.4922,2.4922,2.4922,2.4922,2.4948,2.495,2.4949,2.495,2.495,2.495,2.4952,2.4949,2.495,2.4951,2.4947,2.495,2.4949,2.4949,2.4948,2.4951,2.4947,2.4949,2.495,2.4951,2.4954,2.4932,2.495,2.495,2.495,2.495,2.495,0,2.4961,2.4961,2.4962,2.4963,2.4965,2.4961,2.496,2.4962,2.4965,2.4965,2.4966,2.497,2.4972,2.4969,2.4971,2.4975,2.4973,2.4976,2.4976,2.4976,2.4956,2.4955,2.4978,2.4978,2.4978,2.4978,2.4978,2.4978,2.4968,2.4972,2.4972,2.4977,2.4977,2.498,2.4981,2.4983,2.4983,2.4988,2.499,2.4989,2.4989,2.4991,2.4994,2.4994,2.4996,2.5,2.4999,2.498,2.4977,2.4975,2.4974,2.5,2.5,2.5019,2.5019,2.5019]},{"header":{"parameterUnit":"m.s-1","parameterCategory":1,"la1":30.2991,"la2":30.254,"lo1":-89.0895,"lo2":-89.0444,"dy":0.0017,"dx":0.0017,"nx":28,"ny":28,"refTime":"2024-03-25T03:00:00:Z","depth":0,"parameterNumber":3,"parameterNumberName":"V-component_of_WINDS"},"data":[0,0,0,0,0,0,0,0,0,0,0,0,0,0,0,0,0,0,0,0,0,0,0,0,0,0,0,0,0,0,0,0,0,0,0,0,0,0,0,0,0,0,0,0,0,0,0,0,0,0,0,0,0,0,0,0,0,0,-0.59,-0.59,0,-0.586,-0.5859,-0.5859,-0.5889,-0.589,-0.5892,-0.5893,-0.5849,-0.5846,-0.5844,0,0,0,0,0,0,0,0,0,0,0,0,0,-0.6003,-0.6,-0.59,-0.59,-0.5899,-0.586,-0.5859,-0.5859,-0.5889,-0.589,-0.5892,-0.5893,-0.5849,-0.5847,-0.5844,0,0,0,0,0,0,0,0,0,0,0,0,0,-0.596,-0.6,-0.59,-0.5909,-0.591,-0.586,-0.5859,-0.5858,-0.5888,-0.589,-0.5892,-0.5894,-0.585,-0.5847,-0.5843,-0.5781,0,0,-0.5832,-0.5831,0,0,0,0,0,0,0,0,-0.5962,-0.5956,-0.5909,-0.5909,-0.5909,-0.5881,-0.5879,-0.5832,-0.5888,-0.5896,-0.5893,-0.5895,-0.5858,-0.5854,-0.5842,-0.5779,-0.5777,-0.5832,-0.583,-0.5828,-0.5827,0,0,0,0,0,0,0,-0.5965,-0.5958,-0.5884,-0.5908,-0.5908,-0.5915,-0.5911,-0.587,-0.5866,-0.5896,-0.5898,-0.5893,-0.5858,-0.5845,-0.5841,-0.5777,-0.5832,-0.5829,-0.5827,-0.5825,-0.5665,-0.5663,0,0,0,0,0,0,-0.5967,-0.596,-0.5885,-0.5883,-0.5941,-0.5912,-0.5908,-0.5888,-0.5867,-0.5866,-0.5891,-0.5894,-0.585,-0.5845,-0.5839,-0.5768,-0.5828,-0.5825,-0.5823,-0.5667,-0.5664,-0.5662,0,0,0,0,0,0,-0.5969,-0.596,-0.5887,-0.5922,-0.5913,-0.5908,-0.5886,-0.5886,-0.5873,-0.5863,-0.5863,-0.5878,-0.5852,-0.5844,-0.5796,-0.5766,-0.5823,-0.582,-0.5669,-0.5666,-0.5663,-0.5622,0,0,0,0,0,0,-0.5972,-0.5961,-0.5937,-0.5921,-0.5911,-0.5845,-0.5884,-0.5884,-0.5867,-0.5871,-0.5851,-0.585,-0.5853,-0.5802,-0.5793,-0.5762,-0.5817,-0.5672,-0.5668,-0.5664,-0.5626,-0.5618,-0.5611,0,0,0,0,0,-0.5976,-0.5926,-0.5936,-0.5927,-0.5882,-0.5843,-0.5837,-0.5842,-0.5865,-0.5841,-0.5835,-0.5851,-0.5771,-0.5796,-0.5787,-0.5755,-0.5674,-0.5669,-0.5664,-0.5629,-0.5619,-0.5611,0,0,0,0,0,0,-0.5936,-0.5924,-0.5935,-0.5878,-0.5862,-0.5848,-0.5818,-0.5831,-0.5806,-0.5811,-0.5817,-0.5812,-0.5763,-0.5754,-0.5782,-0.5695,-0.5726,-0.5719,-0.5703,-0.5693,-0.5686,-0.5689,-0.5814,0,0,0,0,0,-0.5921,-0.5892,-0.5882,-0.5833,-0.5824,-0.5823,-0.5806,-0.5811,-0.5794,-0.5787,-0.5777,-0.5759,-0.5731,-0.5711,-0.5684,-0.5625,-0.5622,-0.5598,-0.5591,-0.5585,-0.5579,-0.555,-0.554,-0.5646,-0.5646,-0.5646,0,0,-0.589,-0.5879,-0.5859,-0.5825,-0.5813,-0.5782,-0.5816,-0.5781,-0.5759,-0.5781,-0.5736,-0.5729,-0.5709,-0.5656,-0.5632,-0.5647,-0.5549,-0.5579,-0.5574,-0.5571,-0.5544,-0.5534,-0.5525,-0.5643,-0.5644,-0.5644,0,0,-0.5816,-0.5805,-0.5764,-0.5752,-0.5734,-0.5734,-0.5724,-0.5709,-0.5706,-0.5661,-0.5678,-0.5651,-0.56,-0.5587,-0.5573,-0.5498,-0.5512,-0.5489,-0.545,-0.5421,-0.5413,-0.5405,-0.5381,-0.5371,-0.5483,-0.5483,-0.5483,0,-0.5779,-0.5734,-0.5742,-0.5707,-0.5692,-0.5713,-0.5672,-0.5659,-0.5633,-0.5622,-0.564,-0.5579,-0.5567,-0.5513,-0.5495,-0.5482,-0.5473,-0.5491,-0.5413,-0.5406,-0.5399,-0.5376,-0.5366,-0.5481,-0.5481,-0.5481,-0.5481,0,-0.569,-0.5658,-0.5628,-0.5604,-0.5586,-0.5548,-0.555,-0.5531,-0.5538,-0.5536,-0.5492,-0.5479,-0.5451,-0.5438,-0.5444,-0.5385,-0.5395,-0.5413,-0.5444,-0.5387,-0.5365,-0.5356,-0.5477,-0.5478,-0.5479,-0.5479,0,0,-0.5589,-0.5573,-0.5561,-0.5552,-0.5535,-0.5511,-0.5475,-0.5449,-0.5433,-0.5414,-0.5385,-0.5343,-0.5361,-0.5345,-0.5351,-0.5325,-0.527,-0.5347,-0.5346,-0.5334,-0.5206,-0.5194,-0.5184,-0.5279,-0.5277,-0.5276,-0.5209,0,-0.5517,-0.5455,-0.5463,-0.5404,-0.5376,-0.5397,-0.5366,-0.5352,-0.535,-0.5326,-0.5323,-0.5295,-0.5318,-0.531,-0.5286,-0.5282,-0.5244,-0.5286,-0.5253,-0.5251,-0.5258,-0.5172,-0.5158,-0.5095,-0.52,-0.5199,-0.5198,0,-0.5424,-0.5405,-0.5344,-0.5334,-0.5322,-0.5294,-0.5273,-0.5249,-0.5235,-0.5235,-0.522,-0.523,-0.5195,-0.5227,-0.5179,-0.5208,-0.5194,-0.519,-0.5188,-0.5186,-0.5222,-0.5169,-0.5075,-0.5066,-0.5184,-0.5185,-0.5186,0,-0.5359,-0.5318,-0.5277,-0.5268,-0.5255,-0.5235,-0.5228,-0.5216,-0.5201,-0.5182,-0.5173,-0.5149,-0.5136,-0.5118,-0.5122,-0.5145,-0.5074,-0.5106,-0.5074,-0.5074,-0.5059,-0.506,-0.4963,-0.5048,-0.5048,-0.5048,-0.5048,0,-0.5278,-0.5241,-0.5248,-0.5223,-0.5182,-0.5191,-0.515,-0.5146,-0.5136,-0.5111,-0.5126,-0.5102,-0.5109,-0.5085,-0.5088,-0.5049,-0.5043,-0.5043,-0.5044,-0.5042,-0.5042,-0.5034,-0.5039,-0.5046,-0.5046,-0.5047,-0.5047,0,-0.5199,-0.5203,-0.516,-0.5152,-0.5149,-0.5119,-0.5113,-0.5089,-0.5089,-0.5058,-0.5051,-0.505,-0.5024,-0.5026,-0.4995,-0.4998,-0.4951,-0.4956,-0.4956,-0.4958,-0.4927,-0.4931,-0.4823,-0.481,-0.4901,-0.49,-0.49,0,-0.5148,-0.512,-0.511,-0.5095,-0.5088,-0.5063,-0.5049,-0.5057,-0.5041,-0.5025,-0.5004,-0.4979,-0.496,-0.4916,-0.4913,-0.4891,-0.4897,-0.4861,-0.4894,-0.4893,-0.4899,-0.4901,-0.4899,-0.4855,-0.4853,-0.4853,-0.4852,0,-0.5057,-0.5061,-0.504,-0.5021,-0.5004,-0.4988,-0.4974,-0.4961,-0.4968,-0.495,-0.4924,-0.4909,-0.488,-0.4855,-0.4835,-0.4828,-0.4841,-0.4842,-0.4834,-0.4832,-0.4834,-0.4834,-0.494,-0.4844,-0.4845,-0.4846,-0.4846,-0.4846,-0.4992,-0.4969,-0.496,-0.4937,-0.4928,-0.4915,-0.4894,-0.4892,-0.4871,-0.4849,-0.4855,-0.4826,-0.4815,-0.4788,-0.478,-0.4758,-0.4771,-0.4758,-0.4755,-0.4753,-0.475,-0.4836,-0.4753,-0.4754,-0.4754,-0.4754,-0.4754,0,-0.4904,-0.49,-0.4879,-0.486,-0.4842,-0.4858,-0.4844,-0.4828,-0.4803,-0.4792,-0.4773,-0.4745,-0.4722,-0.4718,-0.4697,-0.468,-0.4686,-0.4674,-0.4676,-0.4675,-0.4739,-0.4749,-0.467,-0.467,-0.467,-0.467,-0.467,-0.467,-0.4856,-0.482,-0.4823,-0.4783,-0.4778,-0.4751,-0.4743,-0.4731,-0.4723,-0.4691,-0.4673,-0.4671,-0.4663,-0.4642,-0.4622,-0.4622,-0.4614,-0.46,-0.4602,-0.4662,-0.467,-0.4678,-0.4688,-0.4598,-0.4598,-0.4541,-0.454,-0.454]}]]